Location: *
(37.5724°S, 58.0067°E)
Time: 10:55:47
(UTC+00:00)

Meteor 2-5 Rocket - Pass Details

Date: 26 September 2020
Orbit: 833 x 912 km, 81.2° (Epoch: 29 October)

Event Time Altitude Azimuth Distance (km) Brightness Sun altitude
Exits shadow 16:46:09 53° 167° (SSE) 1,127 4.3 -30.7°
Drops below altitude 10° 16:50:38 10° 170° (S) 2,626 6.5 -31.5°
Sets 16:53:07 0° 170° (S) 3,570 7.2 -31.9°
